Вернуться в каталог

CZ-6A DEB

АктивенSSO
NORAD 55191·DEBRIS·🇨🇳 China

Запущен Nov 11, 2022 с Taiyuan Satellite Launch Center

Loading…

Ближайшие Пролёты (ближайшие 24 часа)

TLE

СвежийSource: Space-Track

Эпоха: Sep 14, 2026, 12:21 UTC

1 55191U 22151VG  26257.51495639  .00000511  00000-0  23665-3 0  9998
2 55191  98.7181 270.0288 0049348  81.1341 279.5421 14.24459759194150

Отслеживайте CZ-6A DEB в реальном времени с AllMySat

Download on the App Store